Location: Allos
(44.2333°N, 6.6333°E)
Time: 17:35:39
(UTC+00:00)

NOAA 6 - Pass Details

Date: 01 December 2020
Orbit: 773 x 786 km, 98.7° (Epoch: 23 January)

Event Time Altitude Azimuth Distance (km) Brightness Sun altitude
Rises 16:17:54 0° 157° (SSE) 3,254 7.3 -4.3°
Reaches altitude 10° 16:20:12 10° 155° (SSE) 2,328 6.5 -4.7°
Maximum altitude 16:25:19 70° 73° (ENE) 829 4.0 -5.5°
Drops below altitude 10° 16:30:26 10° 351° (N) 2,336 6.4 -6.3°
Sets 16:32:45 0° 349° (N) 3,266 7.1 -6.7°
